+ View the NASA Portal
+ Center for Near-Earth Object Studies
IMPORTANT:
The SSD Announcement email list is now available. Major changes are coming in the near future, including possible hostname and/or URL changes. To be notified of such changes, subscribe to this email list.
Please visit
this page
for more details.
Don't show this message again
JPL Small-Body Database Browser
Search:
[
help
]
214677 (2006 SU189)
Classification:
Main-belt Asteroid
SPK-ID:
2214677
[
Ephemeris
|
Orbit Diagram
|
Orbital Elements
|
Mission Design
|
Physical Parameters
|
Discovery Circumstances
|
Close-Approach Data
]
[ show orbit diagram ]
Orbital Elements at Epoch 2458600.5 (2019-Apr-27.0) TDB
Reference:
JPL 16
(heliocentric ecliptic J2000)
Element
Value
Uncertainty (1-sigma)
Units
e
.03903932116386545
5.0738e-08
a
2.734465213428731
2.7981e-08
au
q
2.627713547750269
1.5009e-07
au
i
5.004381254868149
5.0865e-06
deg
node
169.993006745753
5.9017e-05
deg
peri
162.7244151115405
0.00010004
deg
M
309.4612638406527
7.6881e-05
deg
t
p
2458832.361642222483
(2019-Dec-14.86164222)
0.00035172
TDB
period
1651.608202803381
4.52
2.5351e-05
6.941e-08
d
yr
n
.2179693703318673
3.3457e-09
deg/d
Q
2.841216879107193
2.9074e-08
au
Orbit Determination Parameters
# obs. used (total)
300
data-arc span
5677 days (15.54 yr)
first obs. used
2004-02-14
last obs. used
2019-08-31
planetary ephem.
DE431
SB-pert. ephem.
SB431-N16
condition code
0
norm. resid. RMS
.53841
source
ORB
producer
Otto Matic
solution date
2019-Sep-24 04:03:53
Additional Information
Earth MOID
= 1.61688 au
Jupiter MOID
= 2.29478 au
T_jup
= 3.346
[ show covariance matrix ]
[
Ephemeris
|
Orbit Diagram
|
Orbital Elements
|
Mission Design
|
Physical Parameters
|
Discovery Circumstances
|
Close-Approach Data
]
Physical Parameter Table
Parameter
Symbol
Value
Units
Sigma
Reference
Notes
absolute magnitude
H
16.2
n/a
MPO440133
diameter
diameter
3.073
km
1.012
urn:nasa:pds:neowise_diameters_albedos::2.0[mainbelt] (http://adsabs.harvard.edu/abs/2011ApJ...741...68M)
geometric albedo
albedo
0.052
0.026
urn:nasa:pds:neowise_diameters_albedos::2.0[mainbelt] (http://adsabs.harvard.edu/abs/2011ApJ...741...68M)
214677 (2006 SU189)
Discovered 2006-Sep-26 by Mt. Lemmon Survey at Mount Lemmon
Reference:
20090509/Numbers.arc
Last Updated:
2009-05-11
[ show close-approach data ]
[
Ephemeris
|
Orbit Diagram
|
Orbital Elements
|
Mission Design
|
Physical Parameters
|
Discovery Circumstances
|
Close-Approach Data
]
2019-Dec-15 23:52 UT
(server date/time)
Site Manager:
Ryan S. Park
Webmaster
:
Alan B. Chamberlin